Mildenhall RAF, United Kingdom

9:54 AM GMT on February 06, 2016 (GMT +0000)
Mildenhall Air Base

Weather History for EGUN - August, 2014

Change the Weather History Date:

Sunday, August 10, 2014

  Actual Average (EGSC) Record (EGSC)
Temperature  
Mean Temperature 64 °F -  
Max Temperature 71 °F 72 °F 98 °F (2003)
Min Temperature 57 °F 58 °F 48 °F (2001)
Degree Days  
Heating Degree Days 1    
Growing Degree Days 14 (Base 50)    
Moisture  
Dew Point 62 °F    
Average Humidity 96    
Maximum Humidity 100    
Minimum Humidity 63    
Precipitation  
Precipitation 0.35 in - - ()
Sea Level Pressure  
Sea Level Pressure 29.44 in    
Wind  
Wind Speed 11 mph ()    
Max Wind Speed 31 mph    
Max Gust Speed 52 mph    
Visibility 5.9 miles    
Events Rain , Thunderstorm    
Averages and records for this station are not official NWS values.
T = Trace of Precipitation, MM = Missing Value Source: Averaged Metar Reports

Daily Weather History Graph

Daily Weather History Graph

Search for Another Location

Airport or City:

Trip Planner

Search our weather history database for the weather conditions in past years. The results will help you decide how hot, cold, wet, or windy it might be!

Date:

Astronomy

Aug. 10, 2014 Rise Set
Actual Time 5:32 AM BST 8:33 PM BST
Civil Twilight 4:52 AM BST 9:12 PM BST
Nautical Twilight 4:00 AM BST 10:04 PM BST
Astronomical Twilight 2:52 AM BST 11:10 PM BST
Moon 7:59 PM BST (8/10) 5:11 AM BST (8/10)
Length of Visible Light 16h 19m
Length of Day
15h 00m
Full, 100% of the Moon is Illuminated
Aug 10
Full
Aug 10
Full
Aug 17
Last Quarter
Aug 25
New
Sep 2
First Quarter

Hourly Weather History & Observations

Time (BST) Temp. Dew Point Humidity Pressure Visibility Wind Dir Wind Speed Gust Speed Precip Events Conditions
12:58 AM 61.3 °F 54.0 °F 77% 29.74 in 6.2 mi South 8.1 mph - N/A   Overcast
1:58 AM 60.6 °F 55.6 °F 83% 29.73 in 6.2 mi South 9.2 mph - N/A   Scattered Clouds
2:18 AM 60.8 °F 57.2 °F 88% 29.72 in 6.2 mi SSW 8.1 mph - N/A Rain Light Rain
2:58 AM 58.8 °F 58.8 °F 100% 29.71 in 6.2 mi South 6.9 mph - 0.02 in Rain Light Rain
3:11 AM 59.0 °F 59.0 °F 100% 29.69 in 6.2 mi South 6.9 mph - N/A   Mostly Cloudy
3:26 AM 59.0 °F 59.0 °F 100% 29.69 in 6.2 mi South 5.8 mph - N/A Rain Light Rain
3:44 AM 59.0 °F 59.0 °F 100% 29.66 in 6.2 mi ESE 4.6 mph - N/A   Mostly Cloudy
3:58 AM 57.9 °F 57.9 °F 100% 29.66 in 6.2 mi East 4.6 mph - 0.00 in   Mostly Cloudy
4:32 AM 57.2 °F 57.2 °F 100% 29.64 in 6.2 mi SE 6.9 mph - N/A   Light Drizzle
4:41 AM 57.2 °F 57.2 °F 100% 29.63 in 6.2 mi ESE 8.1 mph - N/A   Overcast
4:58 AM 57.6 °F 57.6 °F 100% 29.63 in 6.2 mi ESE 5.8 mph - 0.00 in   Overcast
5:07 AM 57.2 °F 57.2 °F 100% 29.62 in 6.2 mi SSE 5.8 mph - N/A Rain Light Rain
5:24 AM 57.2 °F 57.2 °F 100% 29.61 in 6.2 mi ESE 2.3 mph - N/A   Overcast
5:58 AM 57.9 °F 57.9 °F 100% 29.60 in 6.2 mi SE 6.9 mph - 0.00 in   Overcast
6:23 AM 59.0 °F 59.0 °F 100% 29.58 in 6.2 mi SE 11.5 mph 18.4 mph N/A   Overcast
6:43 AM 59.0 °F 59.0 °F 100% 29.57 in 6.2 mi Variable 3.5 mph - N/A   Overcast
6:53 AM 59.0 °F 59.0 °F 100% 29.56 in 6.2 mi SE 4.6 mph - N/A   Overcast
6:58 AM 59.0 °F 59.0 °F 100% 29.57 in 6.2 mi ESE 5.8 mph - N/A   Overcast
7:08 AM 59.0 °F 59.0 °F 100% 29.55 in 6.2 mi ESE 9.2 mph - N/A   Overcast
7:18 AM 59.0 °F 59.0 °F 100% 29.54 in 6.2 mi ESE 10.4 mph - N/A   Overcast
7:58 AM 60.8 °F 60.8 °F 100% 29.53 in 6.2 mi SE 11.5 mph - N/A   Overcast
8:03 AM 60.8 °F 60.8 °F 100% 29.52 in 6.2 mi SE 11.5 mph - N/A   Overcast
8:33 AM 60.8 °F 60.8 °F 100% 29.50 in 6.2 mi SE 9.2 mph - N/A Rain Light Rain
8:43 AM 62.6 °F 62.6 °F 100% 29.49 in 5.0 mi ESE 10.4 mph - N/A Rain Light Rain
8:58 AM 62.1 °F 62.1 °F 100% 29.48 in 6.2 mi SE 6.9 mph - 0.02 in Rain Light Rain
9:13 AM 62.6 °F 62.6 °F 100% 29.46 in 6.2 mi SE 10.4 mph - N/A Rain Light Rain
9:18 AM 62.6 °F 62.6 °F 100% 29.46 in 3.7 mi SE 11.5 mph - N/A Rain Light Rain
9:23 AM 62.6 °F 62.6 °F 100% 29.45 in 2.5 mi SE 12.7 mph - N/A Rain Light Rain
9:28 AM 62.6 °F 62.6 °F 100% 29.45 in 3.1 mi SSE 12.7 mph - N/A Rain Light Rain
9:37 AM 62.6 °F 62.6 °F 100% 29.43 in 6.2 mi SE 15.0 mph - N/A   Overcast
9:42 AM 62.6 °F 62.6 °F 100% 29.43 in 6.2 mi SE 13.8 mph - N/A   Overcast
9:47 AM 64.4 °F 64.4 °F 100% 29.42 in 6.2 mi SE 18.4 mph 24.2 mph N/A   Overcast
9:57 AM 64.4 °F 64.4 °F 100% 29.42 in 6.2 mi SSE 18.4 mph 24.2 mph N/A   Overcast
9:58 AM 63.7 °F 63.7 °F 100% 29.43 in 6.2 mi SSE 17.3 mph 23.0 mph 0.02 in   Overcast
10:03 AM 64.4 °F 64.4 °F 100% 29.42 in 6.2 mi SSE 15.0 mph 23.0 mph N/A   Overcast
10:09 AM 64.4 °F 64.4 °F 100% 29.42 in 6.2 mi SSE 16.1 mph 23.0 mph N/A Rain Light Rain
10:44 AM 62.6 °F 62.6 °F 100% 29.39 in - SSE 15.0 mph - N/A Rain Light Rain
10:48 AM 62.6 °F 62.6 °F 100% 29.38 in 1.7 mi SSE 16.1 mph - N/A Rain Rain
10:53 AM 62.6 °F 62.6 °F 100% 29.37 in 2.5 mi SSE 23.0 mph 31.1 mph N/A Rain Light Rain
10:58 AM 63.3 °F 63.3 °F 100% 29.39 in 3.7 mi SSE 18.4 mph 31.1 mph 0.15 in Rain Light Rain
11:08 AM 62.6 °F 62.6 °F 100% 29.34 in 5.0 mi SE 20.7 mph 25.3 mph N/A Rain Light Rain
11:37 AM 62.6 °F 62.6 °F 100% 29.31 in 6.2 mi SE 20.7 mph 27.6 mph N/A   Scattered Clouds
11:39 AM 62.6 °F 62.6 °F 100% 29.31 in 6.2 mi SE 18.4 mph 27.6 mph N/A Rain Light Rain
11:58 AM 63.7 °F 63.7 °F 100% 29.32 in 6.2 mi SSE 17.3 mph 28.8 mph 0.05 in   Partly Cloudy
12:58 PM 69.4 °F 69.4 °F 100% 29.29 in 6.2 mi South 20.7 mph 31.1 mph N/A   Partly Cloudy
1:18 PM 69.8 °F 69.8 °F 100% 29.27 in 6.2 mi SSE 19.6 mph 27.6 mph N/A   Mostly Cloudy
1:19 PM 68.0 °F 68.0 °F 100% 29.27 in 6.2 mi South 17.3 mph 27.6 mph N/A Rain Light Rain
1:29 PM 68.0 °F 68.0 °F 100% 29.27 in 6.2 mi SSE 20.7 mph 27.6 mph N/A Rain Light Rain
1:34 PM 68.0 °F 68.0 °F 100% 29.27 in 6.2 mi SSE 19.6 mph 28.8 mph N/A Rain Light Rain
1:37 PM 68.0 °F 68.0 °F 100% 29.27 in 6.2 mi SSE 21.9 mph 28.8 mph N/A   Mostly Cloudy
1:42 PM 68.0 °F 68.0 °F 100% 29.26 in 6.2 mi SSE 19.6 mph 27.6 mph N/A   Overcast
1:47 PM 68.0 °F 68.0 °F 100% 29.26 in 6.2 mi SSE 19.6 mph - N/A   Overcast
1:50 PM 68.0 °F 68.0 °F 100% 29.26 in 6.2 mi South 17.3 mph - N/A Rain Light Rain
1:58 PM 67.5 °F 67.5 °F 100% 29.27 in 6.2 mi South 15.0 mph 21.9 mph 0.02 in Rain Light Rain
2:03 PM 66.2 °F 66.2 °F 100% 29.26 in 6.2 mi South 12.7 mph 20.7 mph N/A Rain Light Rain
2:09 PM 68.0 °F 68.0 °F 100% 29.26 in 6.2 mi South 16.1 mph 21.9 mph N/A   Overcast
2:34 PM 71.6 °F 71.6 °F 100% 29.25 in 6.2 mi SSW 16.1 mph 23.0 mph N/A   Mostly Cloudy
2:37 PM 71.6 °F 71.6 °F 100% 29.25 in 6.2 mi SW 27.6 mph 35.7 mph N/A   Mostly Cloudy
2:38 PM 71.6 °F 71.6 °F 100% 29.27 in 6.2 mi West 27.6 mph 44.9 mph N/A   Mostly Cloudy
2:39 PM 69.8 °F 69.8 °F 100% 29.26 in 6.2 mi WNW 31.1 mph 44.9 mph N/A Rain Light Rain
2:44 PM 64.4 °F 64.4 °F 100% 29.30 in 5.6 mi WNW 27.6 mph 51.8 mph N/A Rain Light Rain
2:58 PM 58.6 °F 58.6 °F 100% 29.31 in 3.7 mi NNW 18.4 mph 29.9 mph 0.03 in Rain , Thunderstorm Heavy Rain
3:10 PM 59.0 °F 59.0 °F 100% 29.32 in 6.2 mi NW 12.7 mph - N/A   Mostly Cloudy
3:15 PM 60.8 °F 60.8 °F 100% 29.33 in 6.2 mi WNW 11.5 mph - N/A   Mostly Cloudy
3:16 PM 60.8 °F 60.8 °F 100% 29.33 in 6.2 mi WNW 12.7 mph - N/A   Light Drizzle
3:58 PM 61.7 °F 61.7 °F 100% 29.35 in 6.2 mi West 13.8 mph - 0.04 in Rain Light Rain
4:58 PM 64.9 °F 63.1 °F 94% 29.38 in 6.2 mi West 19.6 mph 27.6 mph 0.00 in   Light Drizzle
5:03 PM 64.4 °F 62.6 °F 94% 29.38 in 6.2 mi West 25.3 mph 32.2 mph N/A   Light Drizzle
5:23 PM 64.4 °F 60.8 °F 88% 29.39 in 6.2 mi West 20.7 mph 28.8 mph N/A   Light Drizzle
5:58 PM 64.6 °F 57.6 °F 78% 29.42 in 6.2 mi West 23.0 mph 31.1 mph 0.00 in   Light Drizzle
6:53 PM 64.4 °F 53.6 °F 68% 29.44 in 6.2 mi West 25.3 mph 34.5 mph N/A   Light Drizzle
6:58 PM 64.4 °F 52.7 °F 66% 29.45 in 6.2 mi West 19.6 mph 32.2 mph 0.00 in   Light Drizzle
7:58 PM 63.1 °F 50.2 °F 63% 29.48 in 6.2 mi WSW 19.6 mph 27.6 mph 0.00 in   Light Drizzle
8:58 PM 60.6 °F 50.2 °F 68% 29.52 in 6.2 mi WSW 18.4 mph 24.2 mph 0.00 in   Light Drizzle
9:58 PM 58.8 °F 51.6 °F 77% 29.53 in 6.2 mi SW 19.6 mph 25.3 mph 0.00 in   Light Drizzle
10:58 PM 58.3 °F 53.1 °F 83% 29.55 in 6.2 mi WSW 17.3 mph 26.5 mph 0.00 in   Light Drizzle
11:58 PM 57.9 °F 52.5 °F 82% 29.57 in 6.2 mi WSW 16.1 mph 26.5 mph 0.00 in   Light Drizzle